Weather in Krupino

Russia / Mari El Republic     56°42′46″N   50°00′39″E
В апреле 2022 года жителям России запретили посещать сайт meteo.paraplan.net по решению Генеральной прокуратуры. Аудитория сайта уменьшилась в 10 раз. Владельцы сайта не видят смысла в поддержке погодного сервера в таких условиях. Сайт будет закрыт в октябре.
temp.,
°C
wind,
m/s
gust,
m/s
humid.,
%
clouds,
%
prec.,
mm/h
press.,
hPa
HPBL,
m
3 october, mon
mon300:00+14s61393100 0.0 1012458
03:00+13s61390100 0.1 1012444
06:00+13s61393100 1.1 1013476
09:00+14s6157697 1.6 1014549
12:00+16s71558100 0.0 1015677
15:00+17s7155359 0.0 1016863
18:00+14sse7165459 0.0 1017626
21:00+13s717515 0.0 1019644
4 october, tue
tue400:00+12s61551100 0.0 1020513
03:00+10sse51253100 0.0 1021380
06:00+10sse51351100 0.0 1022392
09:00+11sse51250100 0.0 1023608
12:00+11s51456100 0.1 1025786
15:00+10sse51263100 0.1 1025626
18:00+11sse51347100 0.0 1025467
21:00+10s51547100 0.0 1024527
5 october, wed
wed500:00+9sse3971100 0.2 1025368
03:00+9s71268100 0.3 1025492
06:00+9sse71362100 0.3 1024527
09:00+8sse61273100 0.3 1023613
12:00+13s695833 0.0 1022937
15:00+14sse6105269 0.0 1020994
18:00+10sse61455100 0.0 1020580
21:00+10s61367100 0.4 1019734
6 october, thu
thu600:00+9s61275100 0.1 1017608
03:00+9s51090100 1.4 1016568
06:00+9s4986100 0.1 1015444
09:00+9sw488484 0.4 1015755
12:00+11sw565676 0.1 10141588
15:00+9wsw4772100 0.4 1014891
18:00+5wsw378517 0.1 1015232
21:00+6wsw3687100 0.1 1015364
7 october, fri
fri700:00+6sw3789100 0.0 1014382
03:00+5sw3890100 0.0 1013247
06:00+3ssw4988100 0.0 1012216
09:00+6sw5881100 0.4 1011622
12:00+6sw51092100 1.3 1010601
15:00+9w598776 1.3 1009647
18:00+8wsw51388100 0.3 1010606
21:00+8w7128780 1.2 1010875